DW8570 Weather Reports


Display with metric or nautical units.
time (UTC)temp
F
wind
direction
speed
MPH
gust
MPH
rain 1hr
in
rain 24hr
in
rain mn
in
humidity
%
barometer
mb
20190123024720 52 159 2.0 8.0 0.01 0.09 0.09 79 1019.9
20190123023222 52 190 3.0 13.0 0.01 0.09 0.09 78 1020.3
20190123021635 52 227 3.0 8.0 0.01 0.09 0.09 78 1020.5
20190123020150 52 118 5.0 17.0 0.01 0.09 0.09 77 1020.5
20190123014647 52 209 3.0 6.0 0.00 0.08 0.08 77 1020.4
20190123013134 52 182 3.0 10.0 0.00 0.08 0.08 77 1020.0
20190123011701 52 206 3.0 10.0 0.00 0.08 0.08 76 1019.9
20190123010136 51 151 2.0 7.0 0.00 0.08 0.08 77 1020.5
20190123004621 51 173 1.0 8.0 0.00 0.09 0.08 77 1020.3
20190123003108 51 180 1.0 5.0 0.00 0.09 0.08 77 1020.2
20190123001623 50 198 1.0 7.0 0.00 0.09 0.08 77 1020.3
20190123000049 50 188 1.0 7.0 0.00 0.09 0.08 78 1020.3
20190122234709 50 197 1.0 4.0 0.00 0.09 0.08 78 1020.7
20190122233058 50 141 2.0 4.0 0.00 0.09 0.08 77 1020.5
20190122231645 50 207 1.0 7.0 0.00 0.09 0.08 77 1020.8
20190122230134 50 198 1.0 7.0 0.01 0.09 0.08 77 1020.4
20190122224630 50 171 0.0 6.0 0.01 0.10 0.08 77 1020.5
20190122223125 50 159 1.0 8.0 0.01 0.10 0.08 76 1020.7
20190122221556 50 184 2.0 7.0 0.01 0.10 0.08 76 1020.7
20190122220058 50 180 1.0 6.0 0.00 0.09 0.07 76 1020.6
20190122214538 50 122 2.0 7.0 0.01 0.10 0.07 76 1020.9
20190122213058 50 153 0.0 7.0 0.01 0.10 0.07 76 1021.1
20190122211538 50 177 2.0 8.0 0.01 0.10 0.07 76 1021.1
20190122210053 50 190 3.0 12.0 0.01 0.10 0.07 75 1021.3
20190122204604 49 176 2.0 9.0 0.00 0.11 0.06 76 1021.2
20190122203131 49 209 2.0 11.0 0.01 0.11 0.06 76 1021.3
20190122201613 48 194 3.0 9.0 0.01 0.11 0.06 76 1021.3
20190122200116 48 186 1.0 7.0 0.01 0.11 0.06 76 1021.5
20190122194546 47 213 1.0 8.0 0.01 0.12 0.05 76 1021.7
20190122193024 47 259 1.0 12.0 0.01 0.12 0.05 76 1022.0
20190122191521 46 194 2.0 10.0 0.01 0.12 0.05 76 1022.6
20190122190013 46 210 2.0 7.0 0.02 0.12 0.05 76 1023.1
20190122184515 45 143 1.0 13.0 0.01 0.12 0.04 75 1023.4
20190122183006 45 197 3.0 10.0 0.01 0.12 0.04 74 1023.7
20190122181503 45 57 1.0 9.0 0.02 0.12 0.04 75 1024.1
20190122180305 44 209 1.0 11.0 0.01 0.11 0.03 75 1024.3
20190122174649 44 194 2.0 9.0 0.02 0.12 0.03 74 1024.6
20190122173153 43 161 1.0 7.0 0.01 0.11 0.02 74 1025.1
20190122171629 42 213 2.0 7.0 0.02 0.11 0.02 74 1025.4
20190122170139 42 167 4.0 12.0 0.02 0.11 0.02 73 1025.4
20190122164716 41 169 2.0 8.0 0.01 0.11 0.01 74 1025.7
20190122163158 41 138 1.0 7.0 0.01 0.11 0.01 73 1025.9
20190122161610 41 136 1.0 5.0 0.00 0.10 0.00 73 1026.1
20190122160139 0 0.0 0.0 0.00 0.10 0.00 1026.4
20190122154629 0 0.0 0.0 0.00 0.10 0.00 1026.5
20190122153115 0 0.0 0.0 0.00 0.10 0.00 1026.4
20190122151544 0 0.0 0.0 0.00 0.10 0.00 1026.4
20190122150058 0 0.0 0.0 0.00 0.10 0.00 1026.3
20190122144528 0 0.0 0.0 0.00 0.10 0.00 1026.5
20190122143033 0 0.0 0.0 0.00 0.10 0.00 1026.5
20190122141521 0 0.0 0.0 0.00 0.10 0.00 1026.4
20190122140005 0 0.0 0.0 0.00 0.10 0.00 1026.3
20190122134637 0 0.0 0.0 0.00 0.10 0.00 1026.4
20190122133222 0 0.0 0.0 0.00 0.10 0.00 1026.6
20190122131708 0 0.0 0.0 0.00 0.10 0.00 1026.6
20190122130121 0 0.0 0.0 0.00 0.10 0.00 1026.6
20190122124625 0 0.0 0.0 0.00 0.10 0.00 1026.9
20190122123111 0 0.0 0.0 0.00 0.10 0.00 1027.0
20190122121620 0 0.0 0.0 0.00 0.10 0.00 1027.1
20190122120056 0 0.0 0.0 0.00 0.10 0.00 1027.0
20190122114609 0 0.0 0.0 0.00 0.10 0.00 1027.0
20190122113055 0 0.0 0.0 0.00 0.10 0.00 1027.0
20190122111525 0 0.0 0.0 0.00 0.10 0.00 1026.8
20190122110017 29 176 0.0 0.0 0.00 0.10 0.00 80 1026.8
20190122104516 29 176 0.0 0.0 0.00 0.10 0.00 80 1026.7
20190122103012 30 176 0.0 0.0 0.00 0.10 0.00 78 1026.8
20190122101522 30 176 0.0 1.0 0.00 0.10 0.00 76 1026.8
20190122100032 29 176 0.0 0.0 0.00 0.10 0.00 77 1026.9
20190122094519 29 176 0.0 0.0 0.00 0.10 0.00 79 1026.7
20190122093039 29 176 0.0 0.0 0.00 0.10 0.00 79 1026.4
20190122091507 29 176 0.0 0.0 0.00 0.10 0.00 79 1026.4
20190122084640 30 176 0.0 0.0 0.00 0.10 0.00 76 1026.5
20190122083148 31 176 0.0 0.0 0.00 0.10 0.00 73 1026.4
20190122081650 31 176 0.0 0.0 0.00 0.10 0.00 74 1026.4
20190122080145 31 176 0.0 0.0 0.00 0.10 0.00 74 1026.2
20190122074707 31 176 0.0 0.0 0.00 0.10 0.00 72 1026.1
20190122073139 32 176 0.0 0.0 0.00 0.10 0.00 71 1026.0
20190122071621 32 176 0.0 0.0 0.00 0.10 0.00 71 1026.0
20190122070154 32 176 0.0 1.0 0.00 0.10 0.00 71 1025.8
20190122064637 33 176 0.0 1.0 0.00 0.10 0.00 69 1026.0
20190122063126 33 176 0.0 0.0 0.00 0.10 0.00 69 1025.8
20190122061732 33 176 0.0 1.0 0.00 0.10 0.00 69 1025.7
20190122060045 34 177 0.0 1.0 0.00 0.10 0.00 67 1025.7
20190122054613 34 177 0.0 2.0 0.00 0.10 0.10 66 1025.6
20190122053129 34 185 0.0 2.0 0.00 0.10 0.10 66 1025.8
20190122051645 34 172 0.0 2.0 0.00 0.10 0.10 66 1026.0
20190122050103 34 144 0.0 2.0 0.00 0.10 0.10 66 1025.9
20190122044554 35 147 0.0 3.0 0.00 0.10 0.10 65 1025.8
20190122043201 34 136 0.0 1.0 0.00 0.10 0.10 66 1025.8
20190122041620 35 135 0.0 2.0 0.00 0.10 0.10 66 1026.0
20190122040152 35 92 0.0 2.0 0.00 0.10 0.10 65 1026.1
20190122034626 35 139 0.0 3.0 0.00 0.10 0.10 66 1026.1
20190122033044 35 160 0.0 1.0 0.00 0.10 0.10 67 1026.2
20190122031606 35 165 0.0 2.0 0.00 0.10 0.10 67 1026.3
20190122030219 35 165 0.0 2.0 0.00 0.10 0.10 67 1026.1